Вернуться в каталог

ASIASAT 4

АктивенСвязьGEO
NORAD 27718·PAYLOAD·🇸🇭 SH

Запущен Apr 12, 2003 с Cape Canaveral Space Force Station

Loading…

TLE

СвежийSource: Space-Track

Эпоха: Sep 14, 2026, 13:22 UTC

1 27718U 03014A   26257.55729080 -.00000229  00000-0  00000-0 0  9995
2 27718   4.9261  74.5758 0002739 105.5706 161.5749  1.00270674 46190

Отслеживайте ASIASAT 4 в реальном времени с AllMySat

Download on the App Store